Location: San Antonio
(29.4240°N, 98.4930°W)
Time: 10:08:11
(UTC-05:00)

Envisat - Pass Details

Date: 21 June 2024
Orbit: 762 x 764 km, 98.3° (Epoch: 12 July)

Event Time Altitude Azimuth Distance (km) Brightness Sun altitude
Rises 05:01:54 0° 6° (N) 3,226 7.0 -17.6°
Reaches altitude 10° 05:04:14 10° 2° (N) 2,297 6.1 -17.2°
Maximum altitude 05:09:10 55° 285° (WNW) 909 3.2 -16.4°
Enters shadow 05:11:58 25° 218° (SW) 1,503 3.9 -15.9°
